Time,TemperatureF,DewpointF,PressureIn,WindDirection,WindDirectionDegrees,WindSpeedMPH,WindSpeedGustMPH,Humidity,HourlyPrecipIn,Conditions,Clouds,dailyrainin,SoftwareType,DateUTC
2013-03-13 00:00:00,25.0,24.8,29.82,West,270,6.8,-999.0,99,-99.99,,,0.00,Acu-Link.com,2013-03-13 05:00:00,
2013-03-13 00:15:00,23.7,23.5,29.82,West,270,4.7,-999.0,99,-99.99,,,0.00,Acu-Link.com,2013-03-13 05:15:00,
2013-03-13 00:30:00,24.1,23.9,29.83,West,270,6.3,-999.0,99,-99.99,,,0.00,Acu-Link.com,2013-03-13 05:30:00,
2013-03-13 00:45:00,23.2,23.0,29.84,NW,315,4.2,-999.0,99,-99.99,,,0.00,Acu-Link.com,2013-03-13 05:45:00,
2013-03-13 01:01:00,22.3,22.1,29.84,NNW,337,8.9,-999.0,99,-99.99,,,0.00,Acu-Link.com,2013-03-13 06:01:00,
2013-03-13 01:16:00,21.9,21.7,29.84,WNW,292,4.2,-999.0,99,-99.99,,,0.00,Acu-Link.com,2013-03-13 06:16:00,
2013-03-13 01:46:00,21.7,21.5,29.85,NW,315,8.9,-999.0,99,-99.99,,,0.00,Acu-Link.com,2013-03-13 06:46:00,
2013-03-13 02:02:00,21.9,21.2,29.87,WNW,292,8.3,-999.0,97,-99.99,,,0.00,Acu-Link.com,2013-03-13 07:02:00,
2013-03-13 02:17:00,21.7,21.0,29.87,NW,315,5.3,-999.0,97,-99.99,,,0.00,Acu-Link.com,2013-03-13 07:17:00,
2013-03-13 02:32:00,21.2,18.7,29.87,West,270,4.7,-999.0,90,-99.99,,,0.00,Acu-Link.com,2013-03-13 07:32:00,
2013-03-13 02:47:00,20.1,18.4,29.88,West,270,2.2,-999.0,93,-99.99,,,0.00,Acu-Link.com,2013-03-13 07:47:00,
2013-03-13 03:03:00,19.9,18.2,29.88,West,270,4.7,-999.0,93,-99.99,,,0.00,Acu-Link.com,2013-03-13 08:03:00,
2013-03-13 03:18:00,19.8,18.4,29.88,NW,315,5.8,-999.0,94,-99.99,,,0.00,Acu-Link.com,2013-03-13 08:18:00,
2013-03-13 03:35:00,19.2,19.0,29.88,West,270,6.8,-999.0,99,-99.99,,,0.00,Acu-Link.com,2013-03-13 08:35:00,
2013-03-13 03:50:00,19.4,19.2,29.88,WNW,292,9.9,-999.0,99,-99.99,,,0.00,Acu-Link.com,2013-03-13 08:50:00,
2013-03-13 04:05:00,19.6,19.4,29.89,West,270,7.3,-999.0,99,-99.99,,,0.00,Acu-Link.com,2013-03-13 09:05:00,
2013-03-13 04:20:00,19.6,19.4,29.89,West,270,4.2,-999.0,99,-99.99,,,0.00,Acu-Link.com,2013-03-13 09:20:00,
2013-03-13 04:36:00,19.8,19.6,29.89,West,270,7.8,-999.0,99,-99.99,,,0.00,Acu-Link.com,2013-03-13 09:36:00,
2013-03-13 05:06:00,19.0,18.8,29.90,West,270,6.8,-999.0,99,-99.99,,,0.00,Acu-Link.com,2013-03-13 10:06:00,
2013-03-13 05:21:00,18.7,18.5,29.92,NW,315,4.7,-999.0,99,-99.99,,,0.00,Acu-Link.com,2013-03-13 10:21:00,
2013-03-13 05:37:00,18.5,18.3,29.92,WNW,292,7.3,-999.0,99,-99.99,,,0.00,Acu-Link.com,2013-03-13 10:37:00,
2013-03-13 05:52:00,18.1,17.9,29.92,West,270,7.8,-999.0,99,-99.99,,,0.00,Acu-Link.com,2013-03-13 10:52:00,
2013-03-13 06:22:00,18.1,17.9,29.94,WNW,292,6.3,-999.0,99,-99.99,,,0.00,Acu-Link.com,2013-03-13 11:22:00,
2013-03-13 06:37:00,18.0,17.8,29.94,West,270,8.3,-999.0,99,-99.99,,,0.00,Acu-Link.com,2013-03-13 11:37:00,
2013-03-13 06:53:00,18.0,17.8,29.94,NW,315,7.3,-999.0,99,-99.99,,,0.00,Acu-Link.com,2013-03-13 11:53:00,
2013-03-13 07:08:00,17.8,17.6,29.95,WNW,292,6.8,-999.0,99,-99.99,,,0.00,Acu-Link.com,2013-03-13 12:08:00,
2013-03-13 07:23:00,17.6,17.4,29.96,West,270,6.3,-999.0,99,-99.99,,,0.00,Acu-Link.com,2013-03-13 12:23:00,
2013-03-13 07:38:00,18.9,18.7,29.97,WNW,292,6.3,-999.0,99,-99.99,,,0.00,Acu-Link.com,2013-03-13 12:38:00,
2013-03-13 07:53:00,19.2,19.0,29.97,West,270,8.3,-999.0,99,-99.99,,,0.00,Acu-Link.com,2013-03-13 12:53:00,
2013-03-13 08:09:00,20.1,19.9,29.99,West,270,5.3,-999.0,99,-99.99,,,0.00,Acu-Link.com,2013-03-13 13:09:00,
2013-03-13 08:24:00,20.1,19.9,29.99,WSW,247,10.4,-999.0,99,-99.99,,,0.00,Acu-Link.com,2013-03-13 13:24:00,
2013-03-13 08:39:00,22.1,20.4,29.99,WNW,292,5.3,-999.0,93,-99.99,,,0.00,Acu-Link.com,2013-03-13 13:39:00,
2013-03-13 08:54:00,21.9,19.9,30.00,West,270,8.9,-999.0,92,-99.99,,,0.00,Acu-Link.com,2013-03-13 13:54:00,
2013-03-13 09:09:00,21.7,19.5,30.01,WNW,292,14.5,-999.0,91,-99.99,,,0.00,Acu-Link.com,2013-03-13 14:09:00,
2013-03-13 09:25:00,22.8,20.3,30.02,WNW,292,8.9,-999.0,90,-99.99,,,0.00,Acu-Link.com,2013-03-13 14:25:00,
2013-03-13 09:40:00,23.5,18.8,30.03,West,270,4.7,-999.0,82,-99.99,,,0.00,Acu-Link.com,2013-03-13 14:40:00,
2013-03-13 09:55:00,24.4,18.5,30.04,West,270,10.4,-999.0,78,-99.99,,,0.00,Acu-Link.com,2013-03-13 14:55:00,
2013-03-13 10:10:00,25.0,17.6,30.05,NNE,22,9.9,-999.0,73,-99.99,,,0.00,Acu-Link.com,2013-03-13 15:10:00,
2013-03-13 10:26:00,26.1,18.0,30.05,NW,315,10.9,-999.0,71,-99.99,,,0.00,Acu-Link.com,2013-03-13 15:26:00,
2013-03-13 10:56:00,27.0,16.5,30.06,West,270,14.5,-999.0,64,-99.99,,,0.00,Acu-Link.com,2013-03-13 15:56:00,
2013-03-13 11:11:00,27.9,15.8,30.07,NNE,22,9.9,-999.0,60,-99.99,,,0.00,Acu-Link.com,2013-03-13 16:11:00,
2013-03-13 11:26:00,27.7,15.3,30.06,WNW,292,7.3,-999.0,59,-99.99,,,0.00,Acu-Link.com,2013-03-13 16:26:00,
2013-03-13 11:42:00,29.1,15.0,30.07,North,0,7.3,-999.0,55,-99.99,,,0.00,Acu-Link.com,2013-03-13 16:42:00,
2013-03-13 11:57:00,29.5,13.6,30.07,West,270,11.9,-999.0,51,-99.99,,,0.00,Acu-Link.com,2013-03-13 16:57:00,
2013-03-13 12:12:00,29.8,13.5,30.08,NW,315,8.9,-999.0,50,-99.99,,,0.00,Acu-Link.com,2013-03-13 17:12:00,
2013-03-13 12:28:00,30.2,12.4,30.08,WNW,292,9.4,-999.0,47,-99.99,,,0.00,Acu-Link.com,2013-03-13 17:28:00,
2013-03-13 12:43:00,31.1,11.8,30.08,NW,315,7.3,-999.0,44,-99.99,,,0.00,Acu-Link.com,2013-03-13 17:43:00,
2013-03-13 12:58:00,31.3,12.5,30.09,NW,315,6.8,-999.0,45,-99.99,,,0.00,Acu-Link.com,2013-03-13 17:58:00,
2013-03-13 13:13:00,32.2,12.8,30.09,West,270,9.4,-999.0,44,-99.99,,,0.00,Acu-Link.com,2013-03-13 18:13:00,
2013-03-13 13:28:00,32.5,13.5,30.09,West,270,7.8,-999.0,45,-99.99,,,0.00,Acu-Link.com,2013-03-13 18:28:00,
2013-03-13 13:44:00,32.4,12.4,30.09,West,270,10.9,-999.0,43,-99.99,,,0.00,Acu-Link.com,2013-03-13 18:44:00,
2013-03-13 13:59:00,33.1,12.0,30.09,West,270,10.4,-999.0,41,-99.99,,,0.00,Acu-Link.com,2013-03-13 18:59:00,
2013-03-13 14:14:00,32.5,11.4,30.10,West,270,10.4,-999.0,41,-99.99,,,0.00,Acu-Link.com,2013-03-13 19:14:00,
2013-03-13 14:29:00,32.4,10.2,30.10,North,0,8.9,-999.0,39,-99.99,,,0.00,Acu-Link.com,2013-03-13 19:29:00,
2013-03-13 14:45:00,32.9,10.7,30.09,West,270,8.3,-999.0,39,-99.99,,,0.00,Acu-Link.com,2013-03-13 19:45:00,
2013-03-13 15:00:00,33.3,11.6,30.09,West,270,10.4,-999.0,40,-99.99,,,0.00,Acu-Link.com,2013-03-13 20:00:00,
2013-03-13 15:30:00,32.7,11.1,30.10,West,270,5.3,-999.0,40,-99.99,,,0.00,Acu-Link.com,2013-03-13 20:30:00,
2013-03-13 15:45:00,32.9,11.3,30.11,North,0,8.3,-999.0,40,-99.99,,,0.00,Acu-Link.com,2013-03-13 20:45:00,
2013-03-13 16:01:00,33.6,10.7,30.10,West,270,9.4,-999.0,38,-99.99,,,0.00,Acu-Link.com,2013-03-13 21:01:00,
2013-03-13 16:46:00,32.2,10.6,30.11,NNW,337,5.3,-999.0,40,-99.99,,,0.00,Acu-Link.com,2013-03-13 21:46:00,
2013-03-13 17:01:00,32.7,11.6,30.11,West,270,7.8,-999.0,41,-99.99,,,0.00,Acu-Link.com,2013-03-13 22:01:00,
2013-03-13 17:32:00,31.3,10.4,30.12,West,270,3.2,-999.0,41,-99.99,,,0.00,Acu-Link.com,2013-03-13 22:32:00,
2013-03-13 17:47:00,31.8,10.3,30.12,West,270,5.8,-999.0,40,-99.99,,,0.00,Acu-Link.com,2013-03-13 22:47:00,
2013-03-13 18:03:00,32.2,10.6,30.11,WNW,292,3.2,-999.0,40,-99.99,,,0.00,Acu-Link.com,2013-03-13 23:03:00,
2013-03-13 18:18:00,31.3,10.4,30.12,West,270,5.3,-999.0,41,-99.99,,,0.00,Acu-Link.com,2013-03-13 23:18:00,
2013-03-13 18:33:00,29.8,11.1,30.12,West,270,4.2,-999.0,45,-99.99,,,0.00,Acu-Link.com,2013-03-13 23:33:00,
2013-03-13 18:48:00,27.7,11.1,30.12,West,270,3.7,-999.0,49,-99.99,,,0.00,Acu-Link.com,2013-03-13 23:48:00,
2013-03-13 19:03:00,26.8,11.1,30.12,West,270,2.7,-999.0,51,-99.99,,,0.00,Acu-Link.com,2013-03-14 00:03:00,
2013-03-13 19:19:00,26.1,10.5,30.12,West,270,2.2,-999.0,51,-99.99,,,0.00,Acu-Link.com,2013-03-14 00:19:00,
2013-03-13 19:34:00,25.5,9.9,30.12,West,270,2.2,-999.0,51,-99.99,,,0.00,Acu-Link.com,2013-03-14 00:34:00,
2013-03-13 19:49:00,24.4,10.6,30.12,West,270,3.2,-999.0,55,-99.99,,,0.00,Acu-Link.com,2013-03-14 00:49:00,
2013-03-13 20:04:00,23.9,10.1,30.12,West,270,0.0,-999.0,55,-99.99,,,0.00,Acu-Link.com,2013-03-14 01:04:00,
2013-03-13 20:20:00,22.8,10.3,30.12,West,270,0.0,-999.0,58,-99.99,,,0.00,Acu-Link.com,2013-03-14 01:20:00,
2013-03-13 20:35:00,22.6,10.1,30.12,West,270,1.7,-999.0,58,-99.99,,,0.00,Acu-Link.com,2013-03-14 01:35:00,
2013-03-13 20:50:00,22.3,10.6,30.12,West,270,1.7,-999.0,60,-99.99,,,0.00,Acu-Link.com,2013-03-14 01:50:00,
2013-03-13 21:05:00,22.5,9.6,30.12,West,270,3.2,-999.0,57,-99.99,,,0.00,Acu-Link.com,2013-03-14 02:05:00,
2013-03-13 21:20:00,23.2,9.5,30.12,West,270,1.7,-999.0,55,-99.99,,,0.00,Acu-Link.com,2013-03-14 02:20:00,
2013-03-13 21:36:00,22.8,9.1,30.12,West,270,0.0,-999.0,55,-99.99,,,0.00,Acu-Link.com,2013-03-14 02:36:00,
2013-03-13 22:06:00,22.6,8.9,30.12,West,270,3.2,-999.0,55,-99.99,,,0.00,Acu-Link.com,2013-03-14 03:06:00,
2013-03-13 22:21:00,22.3,9.0,30.12,WSW,247,0.0,-999.0,56,-99.99,,,0.00,Acu-Link.com,2013-03-14 03:21:00,
2013-03-13 22:36:00,21.2,9.1,30.13,WSW,247,1.1,-999.0,59,-99.99,,,0.00,Acu-Link.com,2013-03-14 03:36:00,
2013-03-13 22:52:00,19.9,8.7,30.12,West,270,0.0,-999.0,61,-99.99,,,0.00,Acu-Link.com,2013-03-14 03:52:00,
2013-03-13 23:07:00,17.8,9.1,30.14,South,180,0.0,-999.0,68,-99.99,,,0.00,Acu-Link.com,2013-03-14 04:07:00,
2013-03-13 23:22:00,16.2,8.8,30.13,West,270,0.0,-999.0,72,-99.99,,,0.00,Acu-Link.com,2013-03-14 04:22:00,
2013-03-13 23:37:00,15.3,10.5,30.14,SW,225,0.0,-999.0,81,-99.99,,,0.00,Acu-Link.com,2013-03-14 04:37:00,
2013-03-13 23:53:00,17.8,12.1,30.14,West,270,0.0,-999.0,78,-99.99,,,0.00,Acu-Link.com,2013-03-14 04:53:00,